Regional Weather Roundup
Issued by NWS Midland/Odessa, TX

Skip options and go directly to product.
Home | Oldest Version | Previous Version | Current Version | All | Text Only | Save Text | Print | Product List | Glossary Off

Skip product version selection by date and time.   

717
ASUS44 KMAF 261510
RWRMAF
MIDLAND AREA WEATHER ROUNDUP
NATIONAL WEATHER SERVICE MIDLAND TX
1000 AM CDT WED APR 26 2017

...IN SOUTHWEST TEXAS AND SOUTHEAST NEW MEXICO...

CITY           SKY/WX    TMP DP  RH WIND       PRES   REMARKS
ALPINE         MOSUNNY   66  27  22 NW24G32   29.94F
ANDREWS        FAIR      57  39  51 NW22G30   29.83R
ARTESIA        SUNNY     57  36  44 N29       29.88R
BIG SPRING     SUNNY     62  43  49 NW31G40   29.77R
CARLSBAD       SUNNY     60  33  36 N28G36    29.85R
DRYDEN           N/A     78  33  19 NW20G29   29.73S
FORT STOCKTON  MOSUNNY   70  32  24 W16       29.80R
GUAD PASS      SUNNY     54  24  31 W23G35    29.90R
HOBBS          MOSUNNY   54  36  50 NW24G30   29.84R
MARFA          MOSUNNY   64  25  22 NW18      29.93R
MIDLAND AIRPK  SUNNY     63  37  37 NW30G37   29.79R
MIDLAND INTL   SUNNY     64  36  35 NW31G38   29.77R
ODESSA         SUNNY     64  35  34 MISG      29.79R
PECOS          SUNNY     68  28  22 N23G29    29.82R
PRESIDIO       FAIR      76  33  21 NW26G35   29.84R
SEMINOLE       CLOUDY    53  38  57 N20G29    29.84R
SNYDER         MOSUNNY  N/A N/A N/A NW23G36   29.71R
WINK           SUNNY     65  28  24 NW29G39   29.81R
$$
...OTHER STATIONS IN TEXAS...

CITY           SKY/WX    TMP DP  RH WIND       PRES   REMARKS
ABILENE        LGT RAIN  67  52  58 NW13      29.65R
AMARILLO       PTSUNNY   43  37  79 N28G36    29.78S WCI  33
AUSTIN         SUNNY     82  69  64 SW14      29.53R
BROWNSVILLE    MOSUNNY   85  75  72 S20G29    29.53R
CORPUS CHRISTI CLOUDY    80  73  79 SW16      29.53R HAZE
DALLAS FTW     CLOUDY    64  61  90 NW16      29.51R
DEL RIO        SUNNY     78  40  25 NW15G25   29.68R
EL PASO        MOSUNNY   64  20  18 NW14      29.89R
HOUSTON INT    CLOUDY    79  69  71 VRB5G18   29.58R
LUBBOCK        MOSUNNY   50  38  63 N22G39    29.78R
SAN ANGELO     SUNNY     73  32  22 W25G36    29.68R
SAN ANTONIO    PTSUNNY   79  69  71 SW10      29.58R
WACO           SUNNY     79  70  74 SW16      29.49R
WICHITA FALLS  NOT AVBL
$$
...OTHER LOCATIONS IN NEW MEXICO...

CITY           SKY/WX    TMP DP  RH WIND       PRES   REMARKS
ALAMOGORDO     SUNNY     59  23  25 N14       29.92R
ALBUQUERQUE    MOSUNNY   47  30  51 NW9       29.93R
CANNON AFB     CLOUDY    45  42  88 N23       29.86R WCI  37
CLOVIS         CLOUDY    45  36  70 N16       29.85R WCI  37
HOLLOMAN AFB   SUNNY     59  24  25 N13       29.94R
ROSWELL        SUNNY     55  34  45 N24G33    29.91
RUIDOSO        SUNNY     45  23  42 NW16G23   29.95R WCI  37
SANTA FE       SUNNY     46  31  55 N6        29.90R
TRUTH OR CONSE SUNNY     57  21  24 VRB6      29.92S
TUCUMCARI      PTSUNNY   48  39  71 N15       29.85R
$$

  • National Weather Service
  • Southern Region Headquarters
  • 819 Taylor Street, Room 10A06
  • Fort Worth, TX 76102
  • Page Author: NWS Fort Worth
  • Web Master: SR-SRH.Webmaster@noaa.gov
  •  
  • Page last modified: 30-Sep-2016 6:36 PM UTC
USA.gov is the U.S. government's official web portal to all federal, state and local government web resources and services.